Weather History for KOXC - August, 2013

Change the Weather History Date:

Thursday, August 8, 2013

  Actual Average Record
Temperature  
Mean Temperature 73 °F -  
Max Temperature 78 °F 77 °F 91 °F (2001)
Min Temperature 68 °F 60 °F 50 °F (1997)
Cooling Degree Days 8    
Growing Degree Days 23 (Base 50)    
Moisture  
Dew Point 65 °F    
Average Humidity 83    
Maximum Humidity 88    
Minimum Humidity 22    
Precipitation  
Precipitation 0.00 in - - ()
Sea Level Pressure  
Sea Level Pressure 30.09 in    
Wind  
Wind Speed 8 mph (South)    
Max Wind Speed 12 mph    
Max Gust Speed 17 mph    
Visibility 8 miles    
Events      
Averages and records for this station are not official NWS values.
T = Trace of Precipitation, MM = Missing Value Source: NWS Daily Summary

Daily Weather History Graph

Daily Weather History Graph

Search for Another Location

Airport or City:

Trip Planner

Search our weather history database for the weather conditions in past years. The results will help you decide how hot, cold, wet, or windy it might be!

Date:

Astronomy

Aug. 08, 2013 Rise Set
Actual Time 5:54 AM EDT 8:01 PM EDT
Civil Twilight 5:24 AM EDT 8:31 PM EDT
Nautical Twilight 4:46 AM EDT 9:08 PM EDT
Astronomical Twilight 4:05 AM EDT 9:49 PM EDT
Moon 7:40 AM EDT (8/8) 8:35 PM EDT (8/8)
Length of Visible Light 15h 07m
Length of Day
14h 06m
Waxing Crescent, 3% of the Moon is Illuminated
Aug 8
Waxing Crescent
Aug 14
First Quarter
Aug 20
Full
Aug 28
Last Quarter
Sep 5
New

Hourly Weather History & Observations

Time (EDT) Temp. Dew Point Humidity Pressure Visibility Wind Dir Wind Speed Gust Speed Precip Events Conditions
12:15 AM 68.0 °F 62.6 °F 83% 30.12 in 10.0 mi SSE 8.1 mph - N/A   Overcast
12:35 AM 68.0 °F 62.6 °F 83% 30.12 in 10.0 mi South 5.8 mph - N/A   Overcast
12:55 AM 68.0 °F 64.4 °F 88% 30.11 in 10.0 mi South 8.1 mph - N/A   Overcast
1:15 AM 68.0 °F 64.4 °F 88% 30.11 in 10.0 mi South 8.1 mph - N/A   Overcast
1:35 AM 68.0 °F 64.4 °F 88% 30.11 in 10.0 mi South 6.9 mph - N/A   Overcast
1:55 AM 69.8 °F 64.4 °F 83% 30.11 in 10.0 mi SSE 8.1 mph - N/A   Overcast
2:15 AM 69.8 °F 64.4 °F 83% 30.10 in 10.0 mi South 9.2 mph - N/A   Overcast
2:55 AM 68.0 °F 62.6 °F 83% 30.10 in 10.0 mi South 9.2 mph - N/A   Overcast
3:15 AM 68.0 °F 62.6 °F 83% 30.09 in 10.0 mi South 8.1 mph - N/A   Overcast
3:35 AM 68.0 °F 62.6 °F 83% 30.09 in 10.0 mi South 8.1 mph - N/A   Overcast
3:55 AM 68.0 °F 62.6 °F 83% 30.09 in 10.0 mi South 8.1 mph - N/A   Overcast
4:15 AM 68.0 °F 64.4 °F 88% 30.09 in 10.0 mi South 9.2 mph - N/A   Overcast
4:35 AM 68.0 °F 64.4 °F 88% 30.09 in 10.0 mi SSW 8.1 mph - N/A   Overcast
4:55 AM 68.0 °F 64.4 °F 88% 30.08 in 10.0 mi SSW 5.8 mph - N/A   Overcast
5:15 AM 68.0 °F 64.4 °F 88% 30.08 in 10.0 mi South 5.8 mph - N/A   Overcast
5:35 AM 69.8 °F 64.4 °F 83% 30.08 in 8.0 mi South 9.2 mph - N/A   Overcast
5:50 AM 69.8 °F 64.4 °F 83% 30.09 in 6.0 mi SSW 8.1 mph 16.1 mph N/A   Light Drizzle
6:45 AM 68.0 °F 64.4 °F 88% 30.09 in 4.0 mi SW 5.8 mph - N/A   Light Drizzle
7:45 AM 68.0 °F 64.4 °F 88% 30.10 in 1.5 mi SSW 5.8 mph - N/A   Light Drizzle
8:07 AM 68.0 °F 64.4 °F 88% 30.10 in 1.0 mi South 5.8 mph - N/A   Light Drizzle
8:50 AM 68.0 °F 64.4 °F 88% 30.10 in 1.2 mi South 5.8 mph - N/A   Light Drizzle
9:50 AM 69.8 °F 64.4 °F 83% 30.11 in 1.0 mi SSW 4.6 mph - N/A   Overcast
10:45 AM 69.8 °F 66.2 °F 88% 30.10 in 2.0 mi SSW 5.8 mph - N/A   Overcast
11:15 AM 71.6 °F 68.0 °F 88% 30.10 in 5.0 mi SW 5.8 mph - N/A   Overcast
11:45 AM 73.4 °F 68.0 °F 83% 30.09 in 5.0 mi SSW 8.1 mph - N/A   Overcast
12:45 PM 73.4 °F 68.0 °F 83% 30.10 in 5.0 mi SSW 11.5 mph - N/A   Overcast
1:25 PM 75.2 °F 68.0 °F 78% 30.10 in 7.0 mi South 10.4 mph - N/A   Overcast
1:45 PM 75.2 °F 68.0 °F 78% 30.09 in 7.0 mi SSW 11.5 mph - N/A   Mostly Cloudy
2:55 PM 75.2 °F 69.8 °F 83% 30.09 in 7.0 mi SSW 9.2 mph - N/A   Mostly Cloudy
3:45 PM 75.2 °F 69.8 °F 83% 30.08 in 7.0 mi SSW 6.9 mph - N/A   Overcast
4:52 PM 78.8 °F 69.8 °F 74% 30.08 in 8.0 mi South 9.2 mph - N/A   Overcast
5:45 PM 75.2 °F 69.8 °F 83% 30.07 in 8.0 mi SSW 11.5 mph - N/A   Overcast
6:20 PM 73.4 °F 68.0 °F 83% 30.07 in 8.0 mi SSW 8.1 mph 17.3 mph N/A   Overcast
6:45 PM 73.4 °F 68.0 °F 83% 30.07 in 8.0 mi SSW 11.5 mph - N/A   Overcast
7:30 PM 73.4 °F 32.0 °F 22% 30.07 in 8.0 mi SSW 5.8 mph - N/A   Mostly Cloudy
7:45 PM 73.4 °F 68.0 °F 83% 30.07 in 8.0 mi SSW 5.8 mph - N/A   Mostly Cloudy
9:15 PM 71.6 °F 66.2 °F 83% 30.08 in 10.0 mi South 5.8 mph - N/A   Clear
9:35 PM 71.6 °F 66.2 °F 83% 30.09 in 10.0 mi South 5.8 mph - N/A   Clear
9:55 PM 71.6 °F 66.2 °F 83% 30.08 in 10.0 mi South 8.1 mph - N/A   Mostly Cloudy
10:15 PM 71.6 °F 66.2 °F 83% 30.08 in 10.0 mi South 8.1 mph - N/A   Mostly Cloudy
10:35 PM 71.6 °F 66.2 °F 83% 30.08 in 10.0 mi South 5.8 mph - N/A   Mostly Cloudy
10:55 PM 71.6 °F 66.2 °F 83% 30.07 in 10.0 mi South 6.9 mph - N/A   Mostly Cloudy
11:15 PM 71.6 °F 66.2 °F 83% 30.07 in 10.0 mi South 6.9 mph - N/A   Overcast
11:35 PM 71.6 °F 66.2 °F 83% 30.07 in 10.0 mi SSW 6.9 mph - N/A   Overcast
11:55 PM 71.6 °F 66.2 °F 83% 30.06 in 10.0 mi SSW 8.1 mph - N/A   Mostly Cloudy